Home   Weather   Waterbury   Past weeks
Flag for USA

Past Weather in Waterbury, Connecticut, USA — Yesterday and Last 2 Weeks

Now
78 °F

Partly sunny.


Feels Like: 81 °F
Forecast: 90 / 65 °F
Wind: 5 mph from North

Location: Oxford

Current Time: Jul 19, 2019 at 12:35:46 pm

Latest Report: Jul 19, 2019 at 11:51 am


Visibility: 10 mi

Pressure: 29.95 "Hg

Humidity: 82%

Dew Point: 72 °F

Location of WaterburyLocation

Past Weather in Waterbury — Graph

°F

Waterbury Temperature Yesterday

Maximum temperature yesterday: 77 °F (at 10:51 am)
Minimum temperature yesterday: 66 °F (at 10:58 pm)
Average temperature yesterday: 71 °F

High & Low Weather Summary for the Past Weeks

 TemperatureHumidityPressure
High89 °F (Jul 4, 3:51 pm)100% (Jul 5, 5:17 am)30.23 "Hg (Jul 5, 5:17 am)
Low59 °F (Jul 16, 4:51 am)35% (Jul 9, 3:51 pm)29.73 "Hg (Jul 12, 4:02 am)
Average74 °F77%29.99 "Hg
* Reported Jul 4 10:51 am — Jul 19 10:51 am, Waterbury. Weather by CustomWeather, © 2019

Note: Actual official high and low records may vary slightly from our data, if they occured in-between our weather recording intervals... More about our weather records

Advertising

Waterbury Weather History for the Previous 24 Hours

Scroll right to see more
 ConditionsComfort  
Time TempWeatherWind HumidityBarometerVisibility
10:51 am
Fri, Jul 19
73 °FLow clouds.5 mph90%29.96 "Hg10 mi
10:05 am72 °FFog.6 mph94%29.93 "Hg6 mi
8:51 am68 °FFog.5 mph96%29.96 "Hg3 mi
7:51 am67 °FFog.3 mph97%29.96 "Hg2 mi
7:35 am66 °FFog.No wind100%29.94 "Hg1 mi
7:10 am66 °FFog.No wind100%29.94 "Hg1 mi
6:51 am67 °FFog.No wind93%29.96 "Hg2 mi
6:41 am66 °FFog.No wind94%29.93 "Hg2 mi
5:51 am66 °FFog.No wind96%29.95 "Hg6 mi
5:25 am66 °FLow clouds.No wind94%29.93 "Hg10 mi
4:51 am65 °FPartly cloudy.No wind97%29.95 "Hg10 mi
4:23 am64 °FPassing clouds.No wind100%29.92 "Hg10 mi
3:51 am67 °FLow clouds.3 mph90%29.94 "Hg10 mi
2:51 am67 °FLow clouds.3 mph93%29.95 "Hg10 mi
1:51 am67 °FLow clouds.5 mph93%29.96 "Hg10 mi
1:30 am66 °FLow clouds.3 mph94%29.93 "Hg10 mi
12:51 am67 °FOvercast.3 mph93%29.97 "Hg10 mi
12:01 am66 °FOvercast.3 mph94%29.95 "Hg10 mi
11:09 pm
Thu, Jul 18
66 °FMostly cloudy.5 mph94%29.95 "Hg10 mi
10:58 pm66 °FOvercast.No wind94%29.95 "Hg10 mi
9:51 pm68 °FMostly cloudy.No wind90%29.96 "Hg10 mi
9:32 pm68 °FOvercast.5 mph94%29.94 "Hg10 mi
8:51 pm68 °FLow clouds.5 mph93%29.96 "Hg10 mi
7:51 pm68 °FLight rain. Fog.6 mph96%29.97 "Hg6 mi
6:51 pm69 °FFog.8 mph96%29.97 "Hg3 mi
6:01 pm70 °FLight rain. Fog.6 mph94%29.94 "Hg5 mi
4:51 pm70 °FFog.8 mph93%29.96 "Hg5 mi
3:51 pm71 °FLow clouds.10 mph90%29.96 "Hg7 mi
2:51 pm71 °FLow clouds.10 mph93%29.98 "Hg7 mi
1:51 pm72 °FFog.10 mph97%29.97 "Hg5 mi
12:51 pm73 °FLight rain. Fog.10 mph97%29.98 "Hg4 mi
12:39 pm73 °FLight rain. Fog.9 mph100%29.96 "Hg4 mi
12:21 pm73 °FRain. Fog.7 mph94%29.96 "Hg4 mi
Weather by CustomWeather, © 2019

See weather overview